www.pogodaiklimat.ru

Погода и климат >> Архив погоды >> Австралия >> Centre Island


ПОГОДА в Centre Island

  • Прогноз погоды в Centre Island
  • Монитор погоды в Centre Island
  • Климат города

АРХИВ ПОГОДЫ в Centre Island

Время (UTC), дата Ветер
(напр.,м/с)
 
Видим.   Явления Облачность Т
(С)
Тd
(С)
f
(%)
Тe
(С)
Тes
(С)
Комфортность P
(гПа)
Po
(гПа)
Тmin
(С)
Tmax
(С)
R
(мм)
R24
(мм)
S
(см)
02 14.05 В 13 н/о н/о +24.9 +9.2 37 +26 +26 жарко 1017.5 1016.0
03 14.05 В 12 н/о н/о +25.3 +11.5 42 +27 +27 жарко 1016.6 1015.1
05 14.05 В 11 н/о н/о +26.0 +12.8 44 +28 +28 жарко 1015.3 1013.8
06 14.05 В 10 н/о н/о +25.9 +10.5 38 +27 +27 жарко 1014.9 1013.4
08 14.05 В 8 н/о н/о +24.7 +11.3 43 +26 +26 жарко 1015.2 1013.7
09 14.05 В 7 н/о н/о +23.7 +13.6 53 +26 +26 жарко 1015.9 1014.4
11 14.05 В 6 н/о н/о +23.1 +14.9 60 +27 +27 душно 1017.2 1015.7
12 14.05 В 6 н/о н/о +23.2 +16.5 66 +28 +28 душно 1017.3 1015.8
14 14.05 ЮВ 7 н/о н/о +21.9 +14.3 62 +25 +25 комфорт 1016.5 1015.0
15 14.05 ЮВ 7 н/о н/о +22.0 +13.6 59 +25 +25 комфорт 1016.0 1014.5
17 14.05 ЮВ 8 н/о н/о +20.8 +9.7 49 +22 +22 комфорт 1015.8 1014.3
18 14.05 ЮВ 10 н/о н/о +21.1 +8.7 45 +22 +22 комфорт 1015.6 1014.1
20 14.05 Ю 10 н/о н/о +19.8 +8.2 47 +20 +20 1015.4 1013.9
21 14.05 Ю 9 н/о н/о +19.1 +8.1 49 +19 +19 1015.8 1014.3
23 14.05 ЮВ 8 н/о н/о +19.9 +6.6 42 +20 +20 1016.8 1015.3
00 15.05 ЮВ 8 н/о н/о +22.0 +8.2 41 +23 +23 комфорт 1016.9 1015.4
02 15.05 В 9 н/о н/о +25.8 +11.2 40 +27 +27 жарко 1015.9 1014.4
03 15.05 В 11 н/о н/о +25.7 +11.1 40 +27 +27 жарко 1015.3 1013.8
05 15.05 В 11 н/о н/о +25.8 +10.0 37 +27 +27 жарко 1014.2 1012.7
06 15.05 В 11 н/о н/о +26.1 +10.3 37 +27 +27 жарко 1014.1 1012.6
08 15.05 В 8 н/о н/о +24.5 +11.5 44 +26 +26 жарко 1014.4 1012.9
09 15.05 В 7 н/о н/о +23.5 +13.4 53 +26 +26 жарко 1015.0 1013.5
11 15.05 ЮВ 5 н/о н/о +22.6 +14.7 61 +26 +26 жарко 1016.3 1014.8
12 15.05 ЮВ 4 н/о н/о +21.7 +16.6 73 +26 +26 душно 1016.5 1015.0
14 15.05 ЮВ 4 н/о н/о +21.0 +16.2 74 +25 +25 комфорт 1015.7 1014.2
15 15.05 ЮВ 5 н/о н/о +20.9 +14.3 66 +24 +24 комфорт 1015.3 1013.8
17 15.05 Ю 6 н/о н/о +20.0 +12.7 63 +22 +22 комфорт 1014.6 1013.1
18 15.05 Ю 7 н/о н/о +19.5 +9.1 51 +20 +20 1014.2 1012.7
20 15.05 Ю 10 н/о н/о +19.3 +7.1 45 +19 +19 1013.8 1012.3
21 15.05 Ю 9 н/о н/о +19.1 +7.5 47 +19 +19 1014.5 1013.0
23 15.05 Ю 10 н/о н/о +20.4 +6.4 40 +21 +21 комфорт 1015.3 1013.8
00 16.05 ЮВ 9 н/о н/о +22.8 +8.1 39 +24 +24 комфорт 1015.7 1014.2
02 16.05 ЮВ 6 н/о н/о +26.1 +11.8 41 +27 +27 жарко 1015.1 1013.6
03 16.05 ЮВ 6 н/о н/о +27.4 +11.8 38 +29 +29 жарко 1014.4 1012.9
05 16.05 В 7 н/о н/о +27.2 +13.2 42 +29 +29 жарко 1013.3 1011.8
06 16.05 В 7 н/о н/о +27.0 +13.4 43 +29 +29 жарко 1013.4 1011.9
08 16.05 В 7 н/о н/о +24.6 +14.4 53 +27 +27 жарко 1013.8 1012.3
09 16.05 В 7 н/о н/о +23.7 +14.9 58 +27 +27 жарко 1014.1 1012.6
11 16.05 В 5 н/о н/о +22.8 +16.6 68 +27 +27 душно 1015.6 1014.1
12 16.05 ЮВ 4 н/о н/о +21.3 +17.7 80 +25 +25 комфорт 1015.8 1014.3
14 16.05 ЮВ 5 н/о н/о +21.2 +17.6 80 +25 +25 комфорт 1015.1 1013.6
15 16.05 ЮВ 6 н/о н/о +21.0 +15.5 71 +24 +24 комфорт 1015.0 1013.5
17 16.05 Ю 8 н/о н/о +21.3 +11.1 52 +23 +23 комфорт 1014.5 1013.0
18 16.05 Ю 10 н/о н/о +20.8 +9.1 47 +22 +22 комфорт 1014.1 1012.6
20 16.05 Ю 12 н/о н/о +20.2 +7.9 45 +20 +20 1013.7 1012.2
21 16.05 Ю 11 н/о н/о +19.7 +6.4 42 +19 +19 1014.3 1012.8
23 16.05 Ю 10 н/о н/о +20.5 +6.5 40 +21 +21 комфорт 1015.6 1014.1
00 17.05 ЮВ 11 н/о н/о +22.7 +8.0 39 +24 +24 комфорт 1015.8 1014.3
02 17.05 ЮВ 8 н/о н/о +25.9 +10.5 38 +27 +27 жарко 1014.8 1013.3
03 17.05 Ю 6 н/о н/о +26.4 +12.5 42 +28 +28 жарко 1014.0 1012.5
05 17.05 ЮВ 5 н/о н/о +27.2 +13.9 44 +29 +29 жарко 1012.9 1011.4
06 17.05 В 3 н/о н/о +26.7 +16.3 53 +30 +30 душно 1012.7 1011.2
08 17.05 В 4 н/о н/о +24.3 +16.3 61 +28 +28 душно 1013.0 1011.5
09 17.05 В 5 н/о н/о +23.4 +16.0 63 +28 +28 душно 1013.1 1011.6
11 17.05 В 5 н/о н/о +22.4 +18.2 77 +28 +28 душно 1014.4 1012.9
12 17.05 В 4 н/о н/о +22.0 +19.0 83 +27 +27 душно 1014.8 1013.3
14 17.05 ЮВ 5 н/о н/о +21.6 +17.2 76 +26 +26 душно 1014.5 1013.0
15 17.05 Ю 6 н/о н/о +21.5 +15.3 68 +25 +25 комфорт 1014.5 1013.0
17 17.05 ЮВ 9 н/о н/о +22.0 +13.1 57 +25 +25 комфорт 1013.5 1012.0
18 17.05 Ю 9 н/о н/о +21.7 +12.3 55 +24 +24 комфорт 1013.4 1011.9
20 17.05 Ю 9 н/о н/о +20.9 +11.3 54 +22 +22 комфорт 1013.6 1012.1
21 17.05 Ю 8 н/о н/о +20.6 +11.2 55 +22 +22 комфорт 1013.9 1012.4
23 17.05 Ю 9 н/о н/о +21.6 +11.0 51 +23 +23 комфорт 1015.0 1013.5
00 18.05 ЮВ 10 н/о н/о +23.0 +12.0 50 +26 +26 жарко 1015.1 1013.6
02 18.05 В 10 н/о н/о +25.4 +15.7 55 +29 +29 душно 1014.5 1013.0
03 18.05 В 10 н/о н/о +26.3 +16.0 53 +30 +30 душно 1014.0 1012.5
05 18.05 В 9 н/о н/о +26.3 +16.8 56 +30 +30 душно 1012.6 1011.1
06 18.05 В 9 н/о н/о +25.4 +16.5 58 +29 +29 душно 1011.9 1010.4
08 18.05 В 7 н/о н/о +24.2 +15.9 60 +27 +27 жарко 1012.1 1010.6
09 18.05 В 6 н/о н/о +23.6 +16.4 64 +27 +27 жарко 1012.7 1011.2
11 18.05 В 5 н/о н/о +22.5 +18.7 79 +28 +28 душно 1014.5 1013.0
12 18.05 ЮВ 5 н/о н/о +22.0 +18.8 82 +27 +27 душно 1014.8 1013.3
14 18.05 ЮВ 6 н/о н/о +21.6 +15.2 67 +25 +25 комфорт 1014.8 1013.3
15 18.05 ЮВ 9 н/о н/о +21.9 +12.5 55 +24 +24 комфорт 1014.1 1012.6
17 18.05 ЮВ 8 н/о н/о +21.6 +9.5 46 +23 +23 комфорт 1013.4 1011.9
18 18.05 ЮВ 8 н/о н/о +21.4 +9.9 48 +23 +23 комфорт 1012.8 1011.3
20 18.05 Ю 7 н/о н/о +20.4 +9.3 49 +21 +21 комфорт 1012.8 1011.3
21 18.05 Ю 6 н/о н/о +19.4 +8.4 49 +20 +20 1013.1 1011.6
23 18.05 Ю 7 н/о н/о +20.8 +7.1 41 +22 +22 комфорт 1014.1 1012.6
00 19.05 ЮВ 6 н/о н/о +22.5 +8.6 41 +24 +24 комфорт 1014.4 1012.9
02 19.05 В 9 н/о н/о +25.5 +14.3 50 +28 +28 жарко 1013.9 1012.4
03 19.05 В 8 н/о н/о +24.9 +16.1 58 +28 +28 жарко 1013.2 1011.7
05 19.05 В 10 н/о н/о +25.3 +17.0 60 +29 +29 душно 1011.8 1010.3
06 19.05 В 10 н/о н/о +25.3 +17.0 60 +29 +29 душно 1011.7 1010.2
08 19.05 В 6 н/о н/о +24.3 +17.8 67 +28 +28 душно 1012.7 1011.2
09 19.05 В 6 н/о н/о +23.6 +18.3 72 +28 +28 душно 1013.2 1011.7
11 19.05 В 5 н/о н/о +22.8 +19.0 79 +29 +29 очень
душно
1014.6 1013.1
12 19.05 В 5 н/о н/о +22.5 +19.5 83 +29 +29 очень
душно
1014.7 1013.2
14 19.05 ЮВ 4 н/о н/о +22.0 +18.8 82 +27 +27 душно 1014.1 1012.6
15 19.05 ЮВ 5 н/о н/о +22.1 +18.1 78 +27 +27 душно 1013.8 1012.3
17 19.05 ЮВ 6 н/о н/о +22.0 +15.4 66 +26 +26 душно 1012.9 1011.4
18 19.05 Ю 5 н/о н/о +21.5 +15.3 68 +25 +25 комфорт 1012.6 1011.1
20 19.05 Ю 6 н/о н/о +21.3 +12.2 56 +23 +23 комфорт 1012.9 1011.4
21 19.05 Ю 6 н/о н/о +21.2 +12.6 58 +23 +23 комфорт 1013.6 1012.1
23 19.05 Ю 5 н/о н/о +22.4 +11.8 51 +25 +25 комфорт 1015.0 1013.5
00 20.05 Ю 6 н/о н/о +23.6 +12.3 49 +25 +25 комфорт 1015.1 1013.6
02 20.05 В 4 н/о н/о +25.7 +15.4 53 +29 +29 душно 1014.8 1013.3
03 20.05 В 6 н/о н/о +27.9 +16.2 49 +31 +31 душно 1014.6 1013.1
05 20.05 В 6 н/о н/о +27.7 +18.4 57 +33 +33 очень
душно
1013.0 1011.5
06 20.05 В 6 н/о н/о +26.9 +18.2 59 +32 +32 очень
душно
1013.1 1011.6
08 20.05 В 6 н/о н/о +25.1 +18.3 66 +30 +30 душно 1013.7 1012.2
09 20.05 В 7 н/о н/о +24.0 +18.9 73 +29 +29 душно 1014.1 1012.6
11 20.05 В 6 н/о н/о +23.5 +19.4 78 +29 +29 душно 1015.3 1013.8
12 20.05 ЮВ 5 н/о н/о +23.0 +20.0 83 +30 +30 очень
душно
1015.4 1013.9
14 20.05 ЮВ 2 н/о н/о +22.3 +18.9 81 +28 +28 душно 1014.7 1013.2
15 20.05 Ю 3 н/о н/о +22.3 +18.7 80 +28 +28 душно 1014.5 1013.0
17 20.05 ЮВ 4 н/о н/о +22.3 +18.3 78 +27 +27 душно 1013.8 1012.3
18 20.05 ЮВ 5 н/о н/о +22.4 +17.5 74 +27 +27 душно 1013.7 1012.2
20 20.05 ЮВ 6 н/о н/о +22.7 +15.8 65 +27 +27 душно 1013.9 1012.4
21 20.05 ЮВ 8 н/о н/о +23.4 +13.6 54 +27 +27 душно 1014.3 1012.8
23 20.05 ЮВ 6 н/о н/о +24.4 +14.2 53 +27 +27 жарко 1015.8 1014.3
00 21.05 ЮВ 8 н/о н/о +25.9 +15.0 51 +29 +29 душно 1016.1 1014.6

 

Местоположение метеостанции Centre Island (Северная территория, Австралия): широта -15.75 долгота 136.80 высота над уровнем моря 13 м.

В архиве по умолчанию представлена погода в Centre Island за последнюю неделю. Архивные данные за месяц целиком и за предыдущие месяцы, начиная с января 2011 года, Вы можете получить, выбрав интересующий диапазон дат из раскрывающегося списка и нажав кнопку "Ввод!".


*Определитесь, кто Вы:
робот инопланетянин человек

Внимание! Время в таблицах - всемирное. Для получения местного времени необходимо прибавить поправку, которая в Centre Island равна 9.5 ч.

Смотрите также архив погоды в соседних городах и на ближайших метеорологических станциях:

Погода в Borroloola (Северная территория, Австралия) (65 км)
Погода в Mcarthur River Mine (Северная территория, Австралия) (109 км)
Погода в Groote Eylandt Airport (Северная территория, Австралия) (200 км)
Погода в North East Island (Северная территория, Австралия) (234 км)
Погода в Mornington Island (Квинсленд, Австралия) (273 км)
Погода в Bulman Aws (Северная территория, Австралия) (352 км)
Погода в Burketown Airport (Квинсленд, Австралия) (366 км)
Погода в Daly Waters Aws (Северная территория, Австралия) (371 км)
Погода в Gove Airport (Северная территория, Австралия) (386 км)
Погода в Century Mine (Квинсленд, Австралия) (390 км)

Пояснения к столбцам:

Ветер - указаны скорость ветра в м/с - средняя за 10 мин, порывы в срок и между сроками (в фигурных скобках) и направление, откуда дует ветер: С - северный, СВ - северо-восточный, В - восточный, ЮВ - юго-восточный, Ю - южный, ЮЗ - юго-западный, З - западный, СЗ - северо-западный.
Видимость - горизонтальная дальность видимости в метрах или километрах. При видимости от 1 до 10 км при отсутствии осадков обычно наблюдается дымка, при ухудшении видимости до 1 км и менее - туман. В сухую погоду видимость может ухудшаться дымом, пылью или мглою.
Явления - указаны атмосферные явления, наблюдавшиеся в срок или в последний час перед сроком; фигурными скобками обозначены явления, наблюдавшиеся между сроками (за 1-3 часа до срока); квадратными скобками обозначены град или гололедные отложения с указанием их диаметра в мм.
Облачность - указаны через наклонную черту общая и нижняя облачность в баллах и высота нижней границы облаков в метрах; квадратными скобками обозначены формы облаков: Ci - перистые, Cs - перисто-слоистые, Cc - перисто-кучевые, Ac - высококучевые, As - высокослоистые, Sc - слоисто-кучевые, Ns - слоисто-дождевые, Cu - кучевые, Cb - кучево-дождевые. Подробнее классификацию облаков см. в Атласе облаков (PDF).
T - Температура воздуха - температура, измеренная на высоте 2 м над землей.
Td - Температура точки росы - температура, при понижении до которой содержащийся в воздухе водяной пар достигнет насыщения.
f - Относительная влажность воздуха - влажноcть воздуха, измеренная на высоте 2 м над землей.
Te - Эффективная температура - температура, которую ощущает одетый по сезону человек в тени. Характеристика душности погоды. При расчете учитывается влияние влажности воздуха и скорости ветра на теплоощущения человека.
Tes - Эффективная температура на солнце - температура, которую ощущает человек, с поправкой на солнечный нагрев. Характеристика знойности погоды. Зависит от высоты солнца над горизонтом, облачности и скорости ветра. Ночью, в пасмурную погоду, а также при ветре 12 м/с и более поправка равна нулю.
P - Атмосферное давление - приведенное к уровню моря атмосферное давление.
Po - Атмосферное давление - измеренное на уровне метеостанции атмосферное давление.
Tmin - Минимальная температура - минимум температуры воздуха на высоте 2 м над землей.
Tmax - Максимальная температура - максимум температуры воздуха на высоте 2 м над землей.
R - Количество осадков - Количество выпавших осадков за период времени, мм. При наведении курсора мыши на число - период времени, за который выпало указанное количество осадков.
R24 - Количество осадков - Количество выпавших осадков за 24 часа, мм.
S - Снежный покров - Высота снежного покрова, см. При наведении курсора мыши на число - состояние снежного покрова и степень покрытия местности в баллах.